User: anonymous   Login
Location: Unspecified
(0.0000°N, 0.0000°E)
Time: 15:43:00
(UTC+02:00)
Language:

Cosmos 1092 Rocket - Orbit

View from above orbital plane
View from above orbital plane
View from above satellite
View from above satellite

Ground track
Ground track

The orbit data is extracted from the following two-line orbital elements,

1 11327U 79030B   15087.78962723  .00000090  00000-0  75681-4 0  9998
2 11327 082.9529 178.3287 0026274 291.7840 198.0646 13.76956504807475
Epoch (UTC): 28 March 2015 18:57:03
Eccentricity: 0.0026274
inclination: 82.9529°
perigee height: 955 km
apogee height: 994 km
right ascension of ascending node: 178.3287°
argument of perigee: 291.7840°
revolutions per day: 13.76956504
mean anomaly at epoch: 198.0646°
orbit number at epoch: 80747

The dashed part of the orbit path shows where the satellite is in the earth's shadow,  

DLR